Location: Newark
(43.3746°N, 5.6066°E)
Time: 03:34:25
(UTC+00:00)

Envisat - Visible Passes

Search period start: 06 December 2019 00:00
Search period end: 16 December 2019 00:00
Orbit: 764 x 766 km, 98.1° (Epoch: 05 December)

Date Brightness Start Highest point End Pass type
(mag) Time Alt. Az. Time Alt. Az. Time Alt. Az.
06 Dec 5.5 05:31:27 10° NE 05:35:30 24° E 05:39:32 10° SE visible
06 Dec 3.6 16:46:53 10° SE 16:51:27 35° ENE 16:56:02 10° N visible
06 Dec 4.9 18:26:05 10° SSW 18:30:29 29° W 18:34:55 10° NW visible
07 Dec 6.4 04:57:30 10° ENE 04:58:18 10° E 04:59:06 10° E visible
07 Dec 3.4 17:48:31 10° S 17:53:33 65° W 17:58:37 10° NNW visible
08 Dec 4.5 05:56:23 10° NNE 06:01:11 40° E 06:05:56 10° SSE visible
08 Dec 3.0 17:11:50 10° SSE 17:16:48 59° ENE 17:21:48 10° N visible
08 Dec 5.7 18:52:55 10° SW 18:56:12 17° W 18:59:32 10° NW visible
09 Dec 5.9 05:20:34 10° NE 05:24:08 19° E 05:27:39 10° SE visible
09 Dec 3.8 16:35:59 10° SE 16:40:16 28° ENE 16:44:34 10° N visible
09 Dec 4.5 18:14:27 10° SSW 18:19:08 37° W 18:23:51 10° NNW visible
10 Dec 3.4 06:21:39 10° NNE 06:26:45 71° ESE 06:31:48 10° S visible
10 Dec 3.1 17:37:11 10° S 17:42:15 81° WSW 17:47:22 10° NNW visible
11 Dec 5.0 05:45:17 10° NNE 05:49:50 32° E 05:54:21 10° SSE visible
11 Dec 3.2 17:00:44 10° SE 17:05:34 47° ENE 17:10:26 10° N visible
11 Dec 5.4 18:40:57 10° SW 18:44:49 22° W 18:48:42 10° NW visible
12 Dec 6.0 05:09:52 10° NE 05:12:43 15° E 05:15:32 10° ESE visible
12 Dec 4.1 16:25:09 10° ESE 16:29:05 23° ENE 16:33:01 10° NNE visible
12 Dec 4.0 18:02:56 10° S 18:07:48 46° W 18:12:42 10° NNW visible
13 Dec 3.9 06:10:26 10° NNE 06:15:27 56° E 06:20:25 10° S visible
13 Dec 2.9 17:25:55 10° SSE 17:30:59 81° ENE 17:36:05 10° N visible
13 Dec 6.1 19:08:35 10° WSW 19:10:37 12° W 19:12:40 10° WNW visible
14 Dec 5.4 05:34:15 10° NE 05:38:28 26° E 05:42:40 10° SSE visible
14 Dec 3.5 16:49:42 10° SE 16:54:22 38° ENE 16:59:02 10° N visible
14 Dec 5.1 18:29:10 10° SSW 18:33:27 27° W 18:37:45 10° NW visible
15 Dec 6.2 04:59:36 10° ENE 05:01:17 12° E 05:02:59 10° ESE visible
15 Dec 3.6 17:51:29 10° S 17:56:29 59° W 18:01:31 10° NNW visible
